Regional Weather Roundup
Issued by NWS

Home | Current Version | Previous Version | Text Only | Print | Product List | Glossary On
Versions: 1 2 3 4 5 6 7 8 9 10 11 12 13 14 15 16 17 18 19 20 21 22 23 24 25 26 27 28 29 30 31 32 33 34 35 36 37 38 39 40 41 42 43 44 45 46 47 48 49 50
000
ASUS44 KFWD 030415
RWRTX
NORTH TEXAS HOURLY WEATHER ROUNDUP
NATIONAL WEATHER SERVICE FORT WORTH TX
1100 PM CDT TUE SEP 02 2014

NOTE: "FAIR" INDICATES FEW OR NO CLOUDS BELOW 12,000 FEET WITH NO
SIGNIFICANT WEATHER AND/OR OBSTRUCTIONS TO VISIBILITY.

TXZ118-119-030500-
DALLAS/FORT WORTH METROPLEX

CITY           SKY/WX    TMP DP  RH WIND       PRES   REMARKS
DFW AIRPORT    CLEAR     85  71  63 S12       29.93R HX  90
DALLAS LOVE    PTCLDY    84  72  67 S18G26    29.94R
FTW MEACHAM    CLEAR     85  70  60 SE15G23   29.92R
DAL-EXECUTIVE  CLEAR     84  72  67 SE13G22   29.94R
FTW-ALLIANCE   PTCLDY    84  69  60 SE15G21   29.91R
FTW-NAS-JRB    CLEAR     87  68  52 SE16G24   29.96R HX  90
FTW-SPINKS     CLEAR     82  70  67 SE12      29.95S
ARLINGTON      CLEAR     83  70  64 SE13      29.93S
GRAND PRAIRIE  CLEAR     83  69  62 SE10G17   29.94R
ADDISON        CLEAR     84  70  62 S14       29.96R
MESQUITE       CLEAR     81  72  74 SE8       29.95R
LANCASTER      CLEAR     80  71  74 SE7       29.96R
$$

TXZ091>094-102>105-117-120-121-131>134-030500-
NORTH CENTRAL TEXAS

CITY           SKY/WX    TMP DP  RH WIND       PRES   REMARKS
SHRMAN/DENISON CLEAR     83  71  66 SE16      29.95S
GAINESVILLE    CLEAR     82  70  68 SE9       29.95R
BOWIE          CLEAR     80  69  68 SE5       29.93R
BRIDGEPORT     CLEAR     86  66  52 SE10      29.94R
DECATUR        CLEAR     84  68  58 SE10      29.94R
DENTON         CLEAR     85  71  63 SE14      29.92R HX  90
MCKINNEY       CLEAR     82  71  69 SE13      29.94R
GREENVILLE     CLEAR     79  72  78 SE7       29.96S
ROCKWALL       CLEAR     80  72  77 SE8       29.94S
TERRELL        CLEAR     81  74  79 SE9       29.96S
WAXAHACHIE     CLEAR     80  70  70 SE10      29.96S
GRANBURY       CLEAR     87  70  57 SE9       29.94R HX  91
$$

TXZ083>090-098>101-113>116-127>130-139>142-154-155-030500-
WESTERN NORTH TEXAS

CITY           SKY/WX    TMP DP  RH WIND       PRES   REMARKS
WICHITA FALLS  CLEAR     83  66  56 SE8       29.89R
WF-KICKAPOO    CLEAR     85  64  49 SE8       29.90S
VERNON         CLEAR     88  61  40 SE12      29.89S
ABILENE        CLEAR     85  62  46 SE9       29.94R
ABILENE-DYESS  CLEAR     83  63  49 SE10      29.93R
BRECKENRIDGE   CLEAR     87  66  48 SE13      29.91S
GRAHAM         CLEAR     86  67  52 SE9G16    29.90R
MINERAL WELLS  CLEAR     86  68  54 SE12      29.91R
STEPHENVILLE   CLEAR     83  67  59 SE8       29.98R
COMANCHE         N/A     84  67  57 S12       29.95S
BROWNWOOD      CLOUDY    84  68  58 SE13      29.95R
COLEMAN        CLEAR     86  65  49 S15       29.95R
BRADY          CLEAR     82  66  57 SE10      29.96R
$$

TXZ143>147-156>162-174-175-030500-
CENTRAL TEXAS

CITY           SKY/WX    TMP DP  RH WIND       PRES   REMARKS
WACO           CLEAR     83  71  67 SE13      29.95R
WACO-TSTC      CLEAR     84  72  65 SE10      29.95
WACO-MCGREGOR  CLEAR     82  68  61 SE14      29.96S
HILLSBORO      CLEAR     81  71  71 SE13G18   29.95S
CORSICANA      CLEAR     81  74  79 SE12      29.97R
MEXIA          CLEAR     78  74  88 SE7       29.96S
HEARNE           N/A     81  73  76 SE7       29.97R
CAMERON        CLEAR     83  72  67 S10G22    29.95R
TEMPLE         CLEAR     82  66  57 SE15      29.96R
KILLEEN        PTCLDY    84  70  61 SE17G25   29.96R
KILLEEN-SKYLRK CLEAR     84  66  54 SE18      29.96R
FORT HOOD      CLEAR     86  70  58 SE13G18   29.96R HX  90
GATESVILLE     CLEAR     84  72  65 SE7       29.98R
HAMILTON       CLEAR     83  67  58 SE10      29.97S
LAMPASAS       CLEAR     83  70  64 SE12G18   29.96R
$$

TXZ095>097-106>112-122>126-135>138-148>153-164>167-030500-
EAST TEXAS

CITY           SKY/WX    TMP DP  RH WIND       PRES   REMARKS
PARIS          PTCLDY    77  66  69 S9        29.97S
SULPHUR SPRNGS PTCLDY    78  71  78 S8        29.99S
MOUNT PLEASANT PTCLDY    74  72  93 SE3       29.99S
GILMER         MOCLDY    75  75 100 S5        30.00S
MINEOLA        PTCLDY    77  73  88 SE3       29.98S
TYLER          MOCLDY    78  73  84 S7        29.98S
LONGVIEW       PTCLDY    75  72  90 SE6       29.98S
MARSHALL       MOCLDY    76  73  91 CALM      30.01S
ATHENS         CLEAR     77  72  83 SE7       29.97S
PALESTINE      CLEAR     77  75  93 SE7       29.99S
JACKSONVILLE   MOCLDY    78  74  90 SE10      30.02S
HENDERSON      MOCLDY    75  74  96 S5        29.99S
NACOGDOCHES    MOCLDY    75  73  94 S5        30.00F
LUFKIN         MOCLDY    79  75  87 SE5       30.00S
$$

SUPPLEMENTAL OBSERVATIONS (CENTRAL)

CITY           SKY/WX    TMP DP  RH WIND       PRES   REMARKS
LAKE TEXOMA      N/A     82  72  69 SE9         N/A
PAT MAYSE LAKE   N/A     79  72  78 SE12        N/A
GREENVILLE       N/A     79  72  78 SE6         N/A
CEDAR HILL       N/A     82  72  69 SE9G17      N/A
PALESTINE        N/A     75  72  88 S5          N/A
LAKE LIMESTONE   N/A     79  73  83 SE3G12      N/A
MCGREGOR         N/A     82  70  65 S10         N/A
TEMPLE           N/A     82  70  65 S12         N/A
$$

SUPPLEMENTAL OBSERVATIONS (WEST)

CITY           SKY/WX    TMP DP  RH WIND       PRES   REMARKS
MILLERS CREEK    N/A     84  61  45 SE9         N/A
POSSUM KINGDOM   N/A     84  66  54 SE13        N/A
GRANBURY         N/A     86  70  58 SE13        N/A  HX  90
COMANCHE         N/A     84  66  54 S14         N/A
HAMBY            N/A     84  61  45 SE7         N/A
IVIE RESERVOIR   N/A     84  64  51 SE10G21     N/A
$$

SUPPLEMENTAL OBSERVATIONS (EAST)

CITY           SKY/WX    TMP DP  RH WIND       PRES   REMARKS
TEXARKANA        N/A     72  70  94 CALM        N/A
LINDEN           N/A     73  70  88 S1          N/A
CADDO LAKE       N/A     72  70  94 CALM        N/A
LUFKIN           N/A     77  73  88 MISG        N/A
N SABINE NF      N/A     73  72  94 MISG        N/A
$$

SUPPLEMENTAL OBSERVATIONS ARE A COLLECTION OF AUTOMATED INSTRUMENTS
THAT ARE MAINTAINED BY A VARIETY OF FEDERAL AND STATE AGENCIES.
CERTAIN ELEMENTS...SUCH AS HUMIDITY VALUES AND SUSTAINED WIND
SPEEDS...MAY BE APPROXIMATED.



USA.gov is the U.S. government's official web portal to all federal, state and local government web resources and services.